Wetterdaten - Donnerstag, 17.06.2010 - Realschule am Buchenberg (Borghorst, Münsterland)     75 m über NN
Wetterdaten: aktuell Donnerstag, 17.06.2010 15:55
Datum Zeit Temp. I. Temp. A. Temp. A. min Temp. A. max Feuchte I. Feuchte A. Feuchte 5 Feuchte 6 Luftdruck Regen Wind Richtung Richtung Sonnenschein Taupunkt Windchill Windböen
17.06.2010 15:55 26,1 °C 23,8 °C 23,8 °C 24,3 °C 36 % 40 % 0 % 0 % 1016,0 hPa 0,0 l/m² 8,9 km/h (2 Bft) O 86 ° 5 min 9,4 °C 23,1 °C 20,9 km/h (4 Bft)
17.06.2010 15:50 26,1 °C 24,3 °C 23,9 °C 24,3 °C 36 % 40 % 0 % 0 % 1016,1 hPa 0,0 l/m² 10,3 km/h (2 Bft) O-NO 69 ° 5 min 9,8 °C 23,3 °C 22,5 km/h (4 Bft)
17.06.2010 15:45 26,1 °C 23,9 °C 23,3 °C 23,9 °C 36 % 41 % 0 % 0 % 1016,0 hPa 0,0 l/m² 11,5 km/h (2 Bft) O 81 ° 5 min 9,8 °C 22,6 °C 29,0 km/h (5 Bft)
17.06.2010 15:40 26,1 °C 23,3 °C 23,2 °C 23,6 °C 36 % 42 % 0 % 0 % 1016,1 hPa 0,0 l/m² 9,4 km/h (2 Bft) NO 55 ° 5 min 9,7 °C 22,4 °C 17,7 km/h (3 Bft)
17.06.2010 15:35 26,1 °C 23,6 °C 23,4 °C 23,6 °C 36 % 40 % 0 % 0 % 1016,3 hPa 0,0 l/m² 7,4 km/h (2 Bft) O-NO 67 ° 5 min 9,2 °C 23,3 °C 19,3 km/h (3 Bft)
17.06.2010 15:30 26,1 °C 23,6 °C 23,6 °C 24,1 °C 36 % 39 % 0 % 0 % 1016,3 hPa 0,0 l/m² 9,9 km/h (2 Bft) NO 34 ° 5 min 8,8 °C 22,6 °C 19,3 km/h (3 Bft)
17.06.2010 15:25 26,1 °C 24,1 °C 23,6 °C 24,1 °C 36 % 39 % 0 % 0 % 1016,3 hPa 0,0 l/m² 9,8 km/h (2 Bft) NO 51 ° 5 min 9,3 °C 23,2 °C 22,5 km/h (4 Bft)
17.06.2010 15:20 26,1 °C 23,6 °C 23,2 °C 23,6 °C 36 % 40 % 0 % 0 % 1016,4 hPa 0,0 l/m² 10,0 km/h (2 Bft) O-NO 76 ° 5 min 9,2 °C 22,6 °C 20,9 km/h (4 Bft)
17.06.2010 15:15 26,1 °C 23,2 °C 23,2 °C 23,4 °C 36 % 40 % 0 % 0 % 1016,4 hPa 0,0 l/m² 13,9 km/h (3 Bft) O 81 ° 5 min 8,8 °C 21,3 °C 30,6 km/h (5 Bft)
17.06.2010 15:10 26,1 °C 23,4 °C 23,4 °C 23,9 °C 36 % 40 % 0 % 0 % 1016,5 hPa 0,0 l/m² 11,3 km/h (2 Bft) O-NO 64 ° 5 min 9,0 °C 22,1 °C 24,1 km/h (4 Bft)
17.06.2010 15:05 26,0 °C 23,9 °C 23,8 °C 23,9 °C 36 % 40 % 0 % 0 % 1016,5 hPa 0,0 l/m² 9,3 km/h (2 Bft) NO 52 ° 5 min 9,5 °C 23,1 °C 20,9 km/h (4 Bft)
17.06.2010 15:00 26,0 °C 23,8 °C 23,6 °C 23,8 °C 36 % 40 % 0 % 0 % 1016,4 hPa 0,0 l/m² 9,5 km/h (2 Bft) O 94 ° 5 min 9,4 °C 23,0 °C 20,9 km/h (4 Bft)
17.06.2010 14:55 26,0 °C 23,7 °C 23,6 °C 23,9 °C 36 % 38 % 0 % 0 % 1016,5 hPa 0,0 l/m² 10,5 km/h (2 Bft) O 88 ° 5 min 8,5 °C 22,6 °C 20,9 km/h (4 Bft)
17.06.2010 14:50 26,0 °C 23,9 °C 23,9 °C 24,5 °C 36 % 39 % 0 % 0 % 1016,6 hPa 0,0 l/m² 10,6 km/h (2 Bft) O-SO 105 ° 5 min 9,1 °C 22,8 °C 19,3 km/h (3 Bft)
17.06.2010 14:45 26,0 °C 24,5 °C 24,2 °C 24,6 °C 36 % 39 % 0 % 0 % 1016,7 hPa 0,0 l/m² 9,2 km/h (2 Bft) O-NO 69 ° 5 min 9,6 °C 23,8 °C 24,1 km/h (4 Bft)
17.06.2010 14:40 26,1 °C 24,2 °C 23,9 °C 24,2 °C 35 % 40 % 0 % 0 % 1016,6 hPa 0,0 l/m² 6,7 km/h (2 Bft) NO 39 ° 5 min 9,7 °C 24,1 °C 20,9 km/h (4 Bft)
17.06.2010 14:35 26,1 °C 24,0 °C 23,7 °C 24,0 °C 36 % 39 % 0 % 0 % 1016,6 hPa 0,0 l/m² 8,5 km/h (2 Bft) O 91 ° 5 min 9,2 °C 23,4 °C 17,7 km/h (3 Bft)
17.06.2010 14:30 26,1 °C 23,7 °C 23,3 °C 23,7 °C 36 % 40 % 0 % 0 % 1016,8 hPa 0,0 l/m² 9,4 km/h (2 Bft) O-SO 119 ° 5 min 9,3 °C 22,9 °C 24,1 km/h (4 Bft)
17.06.2010 14:25 26,1 °C 23,3 °C 22,9 °C 23,4 °C 36 % 42 % 0 % 0 % 1016,6 hPa 0,0 l/m² 8,1 km/h (2 Bft) N-NO 22 ° 5 min 9,7 °C 22,8 °C 19,3 km/h (3 Bft)
17.06.2010 14:20 26,1 °C 23,4 °C 23,4 °C 23,5 °C 36 % 41 % 0 % 0 % 1016,9 hPa 0,0 l/m² 8,8 km/h (2 Bft) O-NO 70 ° 5 min 9,4 °C 22,7 °C 19,3 km/h (3 Bft)
17.06.2010 14:15 26,1 °C 23,4 °C 22,9 °C 23,4 °C 36 % 41 % 0 % 0 % 1016,8 hPa 0,0 l/m² 12,5 km/h (3 Bft) SO 126 ° 5 min 9,4 °C 21,8 °C 25,7 km/h (4 Bft)
17.06.2010 14:10 26,2 °C 22,9 °C 22,7 °C 22,9 °C 36 % 42 % 0 % 0 % 1016,8 hPa 0,0 l/m² 10,6 km/h (2 Bft) O-SO 115 ° 5 min 9,3 °C 21,7 °C 22,5 km/h (4 Bft)
17.06.2010 14:05 26,2 °C 22,7 °C 22,5 °C 22,7 °C 36 % 43 % 0 % 0 % 1016,9 hPa 0,0 l/m² 9,4 km/h (2 Bft) O 98 ° 5 min 9,5 °C 21,8 °C 22,5 km/h (4 Bft)
17.06.2010 14:00 26,2 °C 22,6 °C 22,6 °C 22,9 °C 36 % 43 % 0 % 0 % 1016,8 hPa 0,0 l/m² 9,0 km/h (2 Bft) NO 38 ° 5 min 9,4 °C 21,8 °C 25,7 km/h (4 Bft)
17.06.2010 13:55 26,2 °C 22,9 °C 22,9 °C 23,1 °C 36 % 42 % 0 % 0 % 1017,0 hPa 0,0 l/m² 12,0 km/h (2 Bft) NO 48 ° 5 min 9,3 °C 21,4 °C 22,5 km/h (4 Bft)
17.06.2010 13:50 26,2 °C 22,9 °C 22,9 °C 23,2 °C 37 % 42 % 0 % 0 % 1017,0 hPa 0,0 l/m² 9,5 km/h (2 Bft) O 98 ° 5 min 9,3 °C 22,0 °C 25,7 km/h (4 Bft)
17.06.2010 13:45 26,2 °C 23,2 °C 22,7 °C 23,2 °C 37 % 42 % 0 % 0 % 1017,1 hPa 0,0 l/m² 8,4 km/h (2 Bft) NO 46 ° 5 min 9,6 °C 22,6 °C 19,3 km/h (3 Bft)
17.06.2010 13:40 26,3 °C 22,7 °C 22,4 °C 22,7 °C 37 % 42 % 0 % 0 % 1017,2 hPa 0,0 l/m² 7,3 km/h (2 Bft) SO 126 ° 5 min 9,1 °C 22,4 °C 17,7 km/h (3 Bft)
17.06.2010 13:35 26,3 °C 22,7 °C 22,3 °C 22,8 °C 37 % 42 % 0 % 0 % 1017,2 hPa 0,0 l/m² 9,5 km/h (2 Bft) N 11 ° 5 min 9,1 °C 21,8 °C 22,5 km/h (4 Bft)
17.06.2010 13:30 26,3 °C 22,3 °C 22,2 °C 22,3 °C 38 % 43 % 0 % 0 % 1017,3 hPa 0,0 l/m² 7,6 km/h (2 Bft) O 99 ° 5 min 9,1 °C 21,9 °C 19,3 km/h (3 Bft)
17.06.2010 13:25 26,3 °C 22,3 °C 22,3 °C 22,7 °C 38 % 42 % 0 % 0 % 1017,3 hPa 0,0 l/m² 9,0 km/h (2 Bft) NO 37 ° 5 min 8,8 °C 21,5 °C 19,3 km/h (3 Bft)
17.06.2010 13:20 26,4 °C 22,7 °C 22,6 °C 22,9 °C 38 % 42 % 0 % 0 % 1017,4 hPa 0,0 l/m² 12,8 km/h (3 Bft) O-NO 74 ° 5 min 9,1 °C 21,0 °C 24,1 km/h (4 Bft)
17.06.2010 13:15 26,4 °C 22,8 °C 22,6 °C 22,8 °C 39 % 43 % 0 % 0 % 1017,3 hPa 0,0 l/m² 7,0 km/h (2 Bft) O 87 ° 5 min 9,6 °C 22,6 °C 17,7 km/h (3 Bft)
17.06.2010 13:10 26,4 °C 22,6 °C 22,3 °C 22,6 °C 39 % 43 % 0 % 0 % 1017,4 hPa 0,0 l/m² 7,7 km/h (2 Bft) O-NO 77 ° 5 min 9,4 °C 22,2 °C 19,3 km/h (3 Bft)
17.06.2010 13:05 26,4 °C 22,4 °C 22,2 °C 22,4 °C 40 % 42 % 0 % 0 % 1017,6 hPa 0,0 l/m² 11,8 km/h (2 Bft) NO 40 ° 5 min 8,9 °C 20,8 °C 22,5 km/h (4 Bft)
17.06.2010 13:00 26,3 °C 22,2 °C 22,1 °C 22,6 °C 41 % 43 % 0 % 0 % 1017,4 hPa 0,0 l/m² 10,1 km/h (2 Bft) O-NO 72 ° 5 min 9,0 °C 21,0 °C 22,5 km/h (4 Bft)
17.06.2010 12:55 26,2 °C 22,6 °C 22,6 °C 22,8 °C 41 % 42 % 0 % 0 % 1017,5 hPa 0,0 l/m² 9,2 km/h (2 Bft) O-NO 67 ° 5 min 9,0 °C 21,7 °C 20,9 km/h (4 Bft)
17.06.2010 12:50 26,0 °C 22,7 °C 22,3 °C 22,8 °C 41 % 41 % 0 % 0 % 1017,5 hPa 0,0 l/m² 11,1 km/h (2 Bft) O 92 ° 5 min 8,8 °C 21,3 °C 20,9 km/h (4 Bft)
17.06.2010 12:45 25,9 °C 22,3 °C 22,3 °C 22,4 °C 41 % 42 % 0 % 0 % 1017,6 hPa 0,0 l/m² 8,8 km/h (2 Bft) SO 124 ° 5 min 8,8 °C 21,5 °C 27,4 km/h (4 Bft)
17.06.2010 12:40 25,7 °C 22,4 °C 22,4 °C 22,8 °C 41 % 41 % 0 % 0 % 1017,8 hPa 0,0 l/m² 8,7 km/h (2 Bft) NW 306 ° 5 min 8,5 °C 21,7 °C 19,3 km/h (3 Bft)
17.06.2010 12:35 25,6 °C 22,6 °C 21,9 °C 22,6 °C 40 % 42 % 0 % 0 % 1017,7 hPa 0,0 l/m² 6,4 km/h (2 Bft) O 92 ° 5 min 9,0 °C 22,6 °C 24,1 km/h (4 Bft)
17.06.2010 12:30 25,5 °C 21,9 °C 21,9 °C 22,0 °C 40 % 42 % 0 % 0 % 1017,6 hPa 0,0 l/m² 10,8 km/h (2 Bft) O-SO 112 ° 5 min 8,4 °C 20,5 °C 25,7 km/h (4 Bft)
17.06.2010 12:25 25,3 °C 22,0 °C 22,0 °C 22,3 °C 39 % 42 % 0 % 0 % 1017,7 hPa 0,0 l/m² 11,1 km/h (2 Bft) NO 49 ° 5 min 8,5 °C 20,6 °C 33,8 km/h (5 Bft)
17.06.2010 12:20 25,2 °C 22,3 °C 22,3 °C 22,7 °C 39 % 42 % 0 % 0 % 1017,7 hPa 0,0 l/m² 10,5 km/h (2 Bft) O-NO 69 ° 5 min 8,8 °C 21,0 °C 24,1 km/h (4 Bft)
17.06.2010 12:15 25,1 °C 22,7 °C 22,0 °C 22,7 °C 38 % 42 % 0 % 0 % 1017,8 hPa 0,0 l/m² 10,5 km/h (2 Bft) O 92 ° 5 min 9,1 °C 21,5 °C 24,1 km/h (4 Bft)
17.06.2010 12:10 25,1 °C 22,1 °C 21,2 °C 22,1 °C 38 % 42 % 0 % 0 % 1017,9 hPa 0,0 l/m² 9,5 km/h (2 Bft) O 96 ° 5 min 8,6 °C 21,1 °C 22,5 km/h (4 Bft)
17.06.2010 12:05 25,1 °C 21,2 °C 21,2 °C 21,3 °C 38 % 45 % 0 % 0 % 1018,0 hPa 0,0 l/m² 11,5 km/h (2 Bft) NO 55 ° 5 min 8,8 °C 19,5 °C 24,1 km/h (4 Bft)
17.06.2010 12:00 25,1 °C 21,3 °C 21,3 °C 21,6 °C 38 % 45 % 0 % 0 % 1018,4 hPa 0,0 l/m² 11,5 km/h (2 Bft) O-NO 70 ° 5 min 8,9 °C 19,7 °C 24,1 km/h (4 Bft)
17.06.2010 11:55 25,1 °C 21,5 °C 21,2 °C 21,6 °C 38 % 45 % 0 % 0 % 1018,2 hPa 0,0 l/m² 9,4 km/h (2 Bft) O-SO 123 ° 5 min 9,1 °C 20,5 °C 20,9 km/h (4 Bft)
17.06.2010 11:50 25,1 °C 21,2 °C 21,2 °C 21,5 °C 38 % 46 % 0 % 0 % 1018,2 hPa 0,0 l/m² 8,2 km/h (2 Bft) N-NO 27 ° 5 min 9,1 °C 20,5 °C 19,3 km/h (3 Bft)
17.06.2010 11:45 25,1 °C 21,5 °C 21,5 °C 21,9 °C 38 % 45 % 0 % 0 % 1018,3 hPa 0,0 l/m² 10,8 km/h (2 Bft) O 100 ° 5 min 9,1 °C 20,1 °C 27,4 km/h (4 Bft)
17.06.2010 11:40 25,1 °C 21,8 °C 21,4 °C 21,8 °C 39 % 44 % 0 % 0 % 1018,3 hPa 0,0 l/m² 9,3 km/h (2 Bft) O 85 ° 5 min 9,0 °C 20,8 °C 27,4 km/h (4 Bft)
17.06.2010 11:35 25,1 °C 21,4 °C 21,1 °C 21,4 °C 39 % 45 % 0 % 0 % 1018,4 hPa 0,0 l/m² 11,1 km/h (2 Bft) SO 138 ° 5 min 9,0 °C 19,9 °C 24,1 km/h (4 Bft)
17.06.2010 11:30 25,1 °C 21,1 °C 21,1 °C 21,4 °C 39 % 44 % 0 % 0 % 1018,5 hPa 0,0 l/m² 11,3 km/h (2 Bft) O 96 ° 5 min 8,4 °C 19,5 °C 25,7 km/h (4 Bft)
17.06.2010 11:25 25,1 °C 21,4 °C 21,3 °C 21,6 °C 39 % 44 % 0 % 0 % 1018,5 hPa 0,0 l/m² 10,5 km/h (2 Bft) N-NO 17 ° 5 min 8,6 °C 20,0 °C 33,8 km/h (5 Bft)
17.06.2010 11:20 25,1 °C 21,3 °C 21,3 °C 21,5 °C 39 % 45 % 0 % 0 % 1018,5 hPa 0,0 l/m² 9,7 km/h (2 Bft) O-NO 78 ° 5 min 8,9 °C 20,2 °C 22,5 km/h (4 Bft)
17.06.2010 11:15 25,1 °C 21,5 °C 21,5 °C 21,8 °C 39 % 43 % 0 % 0 % 1018,4 hPa 0,0 l/m² 13,3 km/h (3 Bft) O 92 ° 5 min 8,4 °C 19,4 °C 24,1 km/h (4 Bft)
17.06.2010 11:10 25,1 °C 21,7 °C 20,9 °C 21,7 °C 39 % 44 % 0 % 0 % 1018,4 hPa 0,0 l/m² 11,6 km/h (2 Bft) O 90 ° 5 min 8,9 °C 20,1 °C 20,9 km/h (4 Bft)
17.06.2010 11:05 25,1 °C 20,9 °C 20,8 °C 21,0 °C 39 % 46 % 0 % 0 % 1018,6 hPa 0,0 l/m² 10,4 km/h (2 Bft) O-SO 120 ° 5 min 8,8 °C 19,5 °C 25,7 km/h (4 Bft)
17.06.2010 11:00 25,1 °C 21,0 °C 21,0 °C 21,2 °C 40 % 46 % 0 % 0 % 1018,6 hPa 0,0 l/m² 11,1 km/h (2 Bft) O-NO 77 ° 5 min 8,9 °C 19,4 °C 24,1 km/h (4 Bft)
17.06.2010 10:55 25,1 °C 21,2 °C 20,9 °C 21,2 °C 40 % 46 % 0 % 0 % 1018,6 hPa 0,0 l/m² 6,4 km/h (2 Bft) O-NO 61 ° 5 min 9,1 °C 21,2 °C 16,1 km/h (3 Bft)
17.06.2010 10:50 25,1 °C 21,0 °C 20,7 °C 21,0 °C 40 % 47 % 0 % 0 % 1018,6 hPa 0,0 l/m² 9,3 km/h (2 Bft) O 80 ° 5 min 9,3 °C 20,0 °C 20,9 km/h (4 Bft)
17.06.2010 10:45 25,1 °C 20,7 °C 20,7 °C 21,0 °C 40 % 48 % 0 % 0 % 1018,7 hPa 0,0 l/m² 11,0 km/h (2 Bft) O 83 ° 5 min 9,3 °C 19,1 °C 24,1 km/h (4 Bft)
17.06.2010 10:40 25,1 °C 21,0 °C 20,9 °C 21,1 °C 40 % 47 % 0 % 0 % 1018,6 hPa 0,0 l/m² 7,9 km/h (2 Bft) O-NO 72 ° 5 min 9,3 °C 20,4 °C 22,5 km/h (4 Bft)
17.06.2010 10:35 25,1 °C 20,9 °C 20,2 °C 20,9 °C 40 % 48 % 0 % 0 % 1018,6 hPa 0,0 l/m² 9,5 km/h (2 Bft) O-SO 117 ° 5 min 9,5 °C 19,8 °C 19,3 km/h (3 Bft)
17.06.2010 10:30 25,1 °C 20,2 °C 20,1 °C 20,2 °C 41 % 50 % 0 % 0 % 1018,7 hPa 0,0 l/m² 9,1 km/h (2 Bft) O 80 ° 5 min 9,4 °C 19,2 °C 20,9 km/h (4 Bft)
17.06.2010 10:25 25,1 °C 20,2 °C 20,0 °C 20,2 °C 41 % 50 % 0 % 0 % 1018,6 hPa 0,0 l/m² 7,8 km/h (2 Bft) NO 39 ° 5 min 9,4 °C 19,6 °C 17,7 km/h (3 Bft)
17.06.2010 10:20 25,1 °C 20,0 °C 19,9 °C 20,0 °C 41 % 52 % 0 % 0 % 1018,6 hPa 0,0 l/m² 6,9 km/h (2 Bft) NO 42 ° 5 min 9,8 °C 19,8 °C 16,1 km/h (3 Bft)
17.06.2010 10:15 25,1 °C 19,9 °C 19,7 °C 19,9 °C 41 % 54 % 0 % 0 % 1018,7 hPa 0,0 l/m² 5,2 km/h (1 Bft) N 355 ° 5 min 10,3 °C 19,9 °C 11,3 km/h (2 Bft)
17.06.2010 10:10 25,1 °C 19,7 °C 19,5 °C 19,7 °C 41 % 54 % 0 % 0 % 1018,6 hPa 0,0 l/m² 5,8 km/h (2 Bft) O 80 ° 5 min 10,1 °C 19,7 °C 12,9 km/h (3 Bft)
17.06.2010 10:05 25,0 °C 19,5 °C 19,4 °C 19,7 °C 41 % 54 % 0 % 0 % 1018,7 hPa 0,0 l/m² 5,6 km/h (1 Bft) O-SO 113 ° 5 min 9,9 °C 19,5 °C 14,5 km/h (3 Bft)
17.06.2010 10:00 25,0 °C 19,7 °C 19,4 °C 19,8 °C 41 % 53 % 0 % 0 % 1018,7 hPa 0,0 l/m² 5,8 km/h (2 Bft) N 360 ° 5 min 9,8 °C 19,7 °C 14,5 km/h (3 Bft)
17.06.2010 09:55 25,0 °C 19,4 °C 19,1 °C 19,4 °C 41 % 54 % 0 % 0 % 1018,7 hPa 0,0 l/m² 5,1 km/h (1 Bft) O-SO 121 ° 5 min 9,8 °C 19,4 °C 9,7 km/h (2 Bft)
17.06.2010 09:50 25,0 °C 19,1 °C 18,9 °C 19,1 °C 41 % 56 % 0 % 0 % 1018,8 hPa 0,0 l/m² 5,4 km/h (1 Bft) NO 39 ° 5 min 10,1 °C 19,1 °C 14,5 km/h (3 Bft)
17.06.2010 09:45 25,0 °C 19,1 °C 18,9 °C 19,2 °C 41 % 56 % 0 % 0 % 1018,8 hPa 0,0 l/m² 4,0 km/h (1 Bft) N-NO 28 ° 5 min 10,1 °C 19,1 °C 11,3 km/h (2 Bft)
17.06.2010 09:40 24,9 °C 18,9 °C 18,6 °C 19,0 °C 41 % 57 % 0 % 0 % 1018,8 hPa 0,0 l/m² 4,4 km/h (1 Bft) NO 46 ° 5 min 10,2 °C 18,9 °C 11,3 km/h (2 Bft)
17.06.2010 09:35 25,0 °C 18,6 °C 18,4 °C 18,6 °C 41 % 58 % 0 % 0 % 1018,8 hPa 0,0 l/m² 4,8 km/h (1 Bft) N-NO 24 ° 5 min 10,2 °C 18,6 °C 11,3 km/h (2 Bft)
17.06.2010 09:30 25,0 °C 18,4 °C 18,3 °C 18,4 °C 41 % 58 % 0 % 0 % 1018,7 hPa 0,0 l/m² 5,8 km/h (2 Bft) N-NO 21 ° 5 min 10,0 °C 18,4 °C 14,5 km/h (3 Bft)
17.06.2010 09:25 25,0 °C 18,3 °C 17,9 °C 18,3 °C 41 % 59 % 0 % 0 % 1018,8 hPa 0,0 l/m² 4,5 km/h (1 Bft) O-NO 63 ° 5 min 10,1 °C 18,3 °C 11,3 km/h (2 Bft)
17.06.2010 09:20 25,0 °C 17,9 °C 17,9 °C 18,1 °C 41 % 59 % 0 % 0 % 1018,8 hPa 0,0 l/m² 6,1 km/h (2 Bft) O-NO 71 ° 5 min 9,8 °C 17,9 °C 11,3 km/h (2 Bft)
17.06.2010 09:15 25,0 °C 18,0 °C 17,7 °C 18,0 °C 41 % 58 % 0 % 0 % 1018,8 hPa 0,0 l/m² 4,3 km/h (1 Bft) NO 40 ° 5 min 9,6 °C 18,0 °C 9,7 km/h (2 Bft)
17.06.2010 09:10 25,0 °C 17,7 °C 17,5 °C 17,7 °C 41 % 59 % 0 % 0 % 1018,8 hPa 0,0 l/m² 3,5 km/h (1 Bft) O 85 ° 5 min 9,6 °C 17,7 °C 11,3 km/h (2 Bft)
17.06.2010 09:05 24,9 °C 17,5 °C 17,2 °C 17,5 °C 41 % 61 % 0 % 0 % 1018,8 hPa 0,0 l/m² 4,7 km/h (1 Bft) N 5 ° 5 min 9,9 °C 17,5 °C 8,0 km/h (2 Bft)
17.06.2010 09:00 24,8 °C 17,3 °C 17,0 °C 17,3 °C 41 % 61 % 0 % 0 % 1018,9 hPa 0,0 l/m² 5,4 km/h (1 Bft) N-NO 26 ° 5 min 9,7 °C 17,3 °C 9,7 km/h (2 Bft)
17.06.2010 08:55 24,8 °C 17,0 °C 16,8 °C 17,0 °C 41 % 63 % 0 % 0 % 1018,8 hPa 0,0 l/m² 4,0 km/h (1 Bft) O 97 ° 5 min 9,9 °C 17,0 °C 11,3 km/h (2 Bft)
17.06.2010 08:50 24,7 °C 16,8 °C 16,6 °C 16,8 °C 41 % 62 % 0 % 0 % 1018,8 hPa 0,0 l/m² 4,3 km/h (1 Bft) NO 40 ° 5 min 9,5 °C 16,8 °C 11,3 km/h (2 Bft)
17.06.2010 08:45 24,7 °C 16,6 °C 16,2 °C 16,6 °C 40 % 64 % 0 % 0 % 1019,0 hPa 0,0 l/m² 4,0 km/h (1 Bft) N-NO 12 ° 5 min 9,8 °C 16,6 °C 8,0 km/h (2 Bft)
17.06.2010 08:40 24,6 °C 16,2 °C 16,2 °C 16,3 °C 40 % 64 % 0 % 0 % 1019,0 hPa 0,0 l/m² 6,1 km/h (2 Bft) O-NO 57 ° 5 min 9,4 °C 16,2 °C 11,3 km/h (2 Bft)
17.06.2010 08:35 24,5 °C 16,2 °C 16,0 °C 16,2 °C 40 % 65 % 0 % 0 % 1019,0 hPa 0,0 l/m² 5,7 km/h (1 Bft) N 350 ° 5 min 9,6 °C 16,2 °C 11,3 km/h (2 Bft)
17.06.2010 08:30 24,4 °C 16,0 °C 15,9 °C 16,1 °C 39 % 66 % 0 % 0 % 1019,0 hPa 0,0 l/m² 5,3 km/h (1 Bft) O-NO 69 ° 5 min 9,7 °C 16,0 °C 9,7 km/h (2 Bft)
17.06.2010 08:25 24,4 °C 16,1 °C 16,0 °C 16,1 °C 39 % 66 % 0 % 0 % 1019,0 hPa 0,0 l/m² 5,1 km/h (1 Bft) N-NO 24 ° 5 min 9,7 °C 16,1 °C 8,0 km/h (2 Bft)
17.06.2010 08:20 24,3 °C 16,0 °C 15,8 °C 16,0 °C 39 % 67 % 0 % 0 % 1019,0 hPa 0,0 l/m² 3,0 km/h (1 Bft) N-NO 12 ° 5 min 9,9 °C 16,0 °C 9,7 km/h (2 Bft)
17.06.2010 08:15 24,2 °C 15,8 °C 15,2 °C 15,8 °C 39 % 67 % 0 % 0 % 1019,0 hPa 0,0 l/m² 1,9 km/h (1 Bft) O-NO 71 ° 5 min 9,7 °C 15,8 °C 6,4 km/h (2 Bft)
17.06.2010 08:10 24,1 °C 15,2 °C 14,9 °C 15,2 °C 38 % 69 % 0 % 0 % 1019,1 hPa 0,0 l/m² 3,3 km/h (1 Bft) N-NO 28 ° 5 min 9,6 °C 15,2 °C 9,7 km/h (2 Bft)
17.06.2010 08:05 24,0 °C 14,9 °C 14,9 °C 15,0 °C 38 % 69 % 0 % 0 % 1019,0 hPa 0,0 l/m² 5,4 km/h (1 Bft) NO 54 ° 5 min 9,3 °C 14,9 °C 11,3 km/h (2 Bft)
17.06.2010 08:00 24,0 °C 14,9 °C 14,7 °C 14,9 °C 38 % 70 % 0 % 0 % 1018,9 hPa 0,0 l/m² 3,0 km/h (1 Bft) N 355 ° 5 min 9,5 °C 14,9 °C 9,7 km/h (2 Bft)
17.06.2010 07:55 24,0 °C 14,7 °C 14,5 °C 14,7 °C 38 % 71 % 0 % 0 % 1018,9 hPa 0,0 l/m² 4,5 km/h (1 Bft) N 350 ° 5 min 9,5 °C 14,7 °C 11,3 km/h (2 Bft)
17.06.2010 07:50 24,0 °C 14,5 °C 14,2 °C 14,5 °C 38 % 72 % 0 % 0 % 1018,9 hPa 0,0 l/m² 3,5 km/h (1 Bft) N-NO 24 ° 5 min 9,5 °C 14,5 °C 9,7 km/h (2 Bft)
17.06.2010 07:45 24,0 °C 14,2 °C 14,1 °C 14,2 °C 38 % 72 % 0 % 0 % 1018,9 hPa 0,0 l/m² 4,2 km/h (1 Bft) N-NO 15 ° 5 min 9,2 °C 14,2 °C 9,7 km/h (2 Bft)
17.06.2010 07:40 24,0 °C 14,1 °C 13,8 °C 14,1 °C 38 % 73 % 0 % 0 % 1019,0 hPa 0,0 l/m² 4,1 km/h (1 Bft) N-NO 13 ° 5 min 9,3 °C 14,1 °C 8,0 km/h (2 Bft)
17.06.2010 07:35 24,0 °C 13,8 °C 13,4 °C 13,8 °C 37 % 74 % 0 % 0 % 1019,0 hPa 0,0 l/m² 3,4 km/h (1 Bft) N 9 ° 5 min 9,2 °C 13,8 °C 9,7 km/h (2 Bft)
17.06.2010 07:30 24,0 °C 13,4 °C 13,1 °C 13,4 °C 37 % 75 % 0 % 0 % 1019,1 hPa 0,0 l/m² 4,4 km/h (1 Bft) N-NO 23 ° 5 min 9,1 °C 13,4 °C 11,3 km/h (2 Bft)
17.06.2010 07:25 24,0 °C 13,1 °C 12,8 °C 13,1 °C 37 % 77 % 0 % 0 % 1019,1 hPa 0,0 l/m² 2,6 km/h (1 Bft) N-NO 13 ° 5 min 9,2 °C 13,1 °C 8,0 km/h (2 Bft)
17.06.2010 07:20 24,0 °C 12,8 °C 12,7 °C 12,8 °C 37 % 77 % 0 % 0 % 1019,1 hPa 0,0 l/m² 3,2 km/h (1 Bft) NO 35 ° 5 min 8,9 °C 12,8 °C 9,7 km/h (2 Bft)
17.06.2010 07:15 24,0 °C 12,7 °C 12,6 °C 12,7 °C 37 % 78 % 0 % 0 % 1019,1 hPa 0,0 l/m² 2,6 km/h (1 Bft) O-NO 57 ° 5 min 9,0 °C 12,7 °C 6,4 km/h (2 Bft)
17.06.2010 07:10 24,0 °C 12,6 °C 12,4 °C 12,6 °C 37 % 78 % 0 % 0 % 1019,0 hPa 0,0 l/m² 3,5 km/h (1 Bft) N 360 ° 5 min 8,9 °C 12,6 °C 8,0 km/h (2 Bft)
17.06.2010 07:05 24,0 °C 12,4 °C 12,3 °C 12,4 °C 37 % 79 % 0 % 0 % 1019,1 hPa 0,0 l/m² 2,6 km/h (1 Bft) NO 41 ° 5 min 8,9 °C 12,4 °C 8,0 km/h (2 Bft)
17.06.2010 07:00 24,0 °C 12,3 °C 12,2 °C 12,3 °C 37 % 78 % 0 % 0 % 1019,1 hPa 0,0 l/m² 4,2 km/h (1 Bft) N-NO 31 ° 5 min 8,6 °C 12,3 °C 9,7 km/h (2 Bft)
17.06.2010 06:55 24,0 °C 12,2 °C 12,1 °C 12,2 °C 37 % 79 % 0 % 0 % 1019,1 hPa 0,0 l/m² 4,4 km/h (1 Bft) N 9 ° 5 min 8,7 °C 12,2 °C 9,7 km/h (2 Bft)
17.06.2010 06:50 24,0 °C 12,1 °C 12,0 °C 12,1 °C 37 % 79 % 0 % 0 % 1019,1 hPa 0,0 l/m² 3,1 km/h (1 Bft) N 355 ° 5 min 8,6 °C 12,1 °C 9,7 km/h (2 Bft)
17.06.2010 06:45 24,0 °C 12,0 °C 11,9 °C 12,0 °C 37 % 79 % 0 % 0 % 1019,0 hPa 0,0 l/m² 3,8 km/h (1 Bft) N 360 ° 5 min 8,5 °C 12,0 °C 9,7 km/h (2 Bft)
17.06.2010 06:40 24,0 °C 11,9 °C 11,8 °C 11,9 °C 37 % 80 % 0 % 0 % 1019,0 hPa 0,0 l/m² 4,3 km/h (1 Bft) N-NO 13 ° 5 min 8,6 °C 11,9 °C 9,7 km/h (2 Bft)
17.06.2010 06:35 24,0 °C 11,8 °C 11,7 °C 11,8 °C 38 % 80 % 0 % 0 % 1019,0 hPa 0,0 l/m² 4,4 km/h (1 Bft) N 5 ° 5 min 8,5 °C 11,8 °C 11,3 km/h (2 Bft)
17.06.2010 06:30 24,0 °C 11,7 °C 11,6 °C 11,7 °C 38 % 81 % 0 % 0 % 1019,0 hPa 0,0 l/m² 2,1 km/h (1 Bft) N-NW 339 ° 5 min 8,5 °C 11,7 °C 6,4 km/h (2 Bft)
17.06.2010 06:25 24,0 °C 11,6 °C 11,5 °C 11,6 °C 38 % 81 % 0 % 0 % 1019,0 hPa 0,0 l/m² 1,8 km/h (1 Bft) N-NO 15 ° 5 min 8,5 °C 11,6 °C 8,0 km/h (2 Bft)
17.06.2010 06:20 24,0 °C 11,5 °C 11,4 °C 11,5 °C 38 % 82 % 0 % 0 % 1019,0 hPa 0,0 l/m² 2,6 km/h (1 Bft) NO 35 ° 5 min 8,5 °C 11,5 °C 8,0 km/h (2 Bft)
17.06.2010 06:15 24,0 °C 11,4 °C 11,3 °C 11,4 °C 38 % 82 % 0 % 0 % 1019,0 hPa 0,0 l/m² 2,2 km/h (1 Bft) N 360 ° 5 min 8,4 °C 11,4 °C 6,4 km/h (2 Bft)
17.06.2010 06:10 24,0 °C 11,3 °C 11,2 °C 11,3 °C 38 % 82 % 0 % 0 % 1019,0 hPa 0,0 l/m² 3,2 km/h (1 Bft) NO 52 ° 5 min 8,3 °C 11,3 °C 8,0 km/h (2 Bft)
17.06.2010 06:05 24,0 °C 11,2 °C 11,1 °C 11,2 °C 38 % 83 % 0 % 0 % 1019,0 hPa 0,0 l/m² 4,1 km/h (1 Bft) N 360 ° 0 min 8,4 °C 11,2 °C 8,0 km/h (2 Bft)
17.06.2010 06:00 24,1 °C 11,1 °C 11,0 °C 11,1 °C 38 % 84 % 0 % 0 % 1019,0 hPa 0,0 l/m² 2,1 km/h (1 Bft) N-NO 12 ° 0 min 8,5 °C 11,1 °C 11,3 km/h (2 Bft)
17.06.2010 05:55 24,1 °C 11,0 °C 10,9 °C 11,0 °C 38 % 84 % 0 % 0 % 1019,1 hPa 0,0 l/m² 2,9 km/h (1 Bft) N 355 ° 0 min 8,4 °C 11,0 °C 8,0 km/h (2 Bft)
17.06.2010 05:50 24,1 °C 10,9 °C 10,9 °C 10,9 °C 38 % 84 % 0 % 0 % 1019,0 hPa 0,0 l/m² 2,8 km/h (1 Bft) N-NO 14 ° 0 min 8,3 °C 10,9 °C 8,0 km/h (2 Bft)
17.06.2010 05:45 24,1 °C 10,9 °C 10,9 °C 10,9 °C 38 % 85 % 0 % 0 % 1019,1 hPa 0,0 l/m² 3,5 km/h (1 Bft) N 10 ° 0 min 8,5 °C 10,9 °C 6,4 km/h (2 Bft)
17.06.2010 05:40 24,1 °C 10,9 °C 10,9 °C 10,9 °C 38 % 85 % 0 % 0 % 1019,1 hPa 0,0 l/m² 1,1 km/h (1 Bft) N-NO 24 ° 0 min 8,5 °C 10,9 °C 4,8 km/h (1 Bft)
17.06.2010 05:35 24,1 °C 10,9 °C 10,9 °C 10,9 °C 38 % 85 % 0 % 0 % 1019,2 hPa 0,0 l/m² 2,6 km/h (1 Bft) N 5 ° 0 min 8,5 °C 10,9 °C 6,4 km/h (2 Bft)
17.06.2010 05:30 24,1 °C 10,9 °C 10,9 °C 10,9 °C 38 % 85 % 0 % 0 % 1019,2 hPa 0,0 l/m² 4,1 km/h (1 Bft) NO 36 ° 0 min 8,5 °C 10,9 °C 8,0 km/h (2 Bft)
17.06.2010 05:25 24,1 °C 10,9 °C 10,9 °C 11,0 °C 38 % 85 % 0 % 0 % 1019,1 hPa 0,0 l/m² 4,1 km/h (1 Bft) N 5 ° 0 min 8,5 °C 10,9 °C 8,0 km/h (2 Bft)
17.06.2010 05:20 24,1 °C 11,0 °C 11,0 °C 11,1 °C 38 % 85 % 0 % 0 % 1019,1 hPa 0,0 l/m² 3,7 km/h (1 Bft) N 9 ° 0 min 8,6 °C 11,0 °C 8,0 km/h (2 Bft)
17.06.2010 05:15 24,1 °C 11,1 °C 11,1 °C 11,1 °C 38 % 85 % 0 % 0 % 1019,1 hPa 0,0 l/m² 2,1 km/h (1 Bft) N-NO 18 ° 0 min 8,7 °C 11,1 °C 8,0 km/h (2 Bft)
17.06.2010 05:10 24,1 °C 11,1 °C 11,1 °C 11,2 °C 38 % 85 % 0 % 0 % 1019,2 hPa 0,0 l/m² 1,4 km/h (1 Bft) N 9 ° 0 min 8,7 °C 11,1 °C 8,0 km/h (2 Bft)
17.06.2010 05:05 24,1 °C 11,2 °C 11,2 °C 11,3 °C 38 % 84 % 0 % 0 % 1019,2 hPa 0,0 l/m² 1,7 km/h (1 Bft) NO 34 ° 0 min 8,6 °C 11,2 °C 4,8 km/h (1 Bft)
17.06.2010 05:00 24,2 °C 11,3 °C 11,3 °C 11,3 °C 38 % 84 % 0 % 0 % 1019,2 hPa 0,0 l/m² 1,2 km/h (1 Bft) N-NO 21 ° 0 min 8,7 °C 11,3 °C 4,8 km/h (1 Bft)
17.06.2010 04:55 24,2 °C 11,3 °C 11,3 °C 11,4 °C 38 % 84 % 0 % 0 % 1019,2 hPa 0,0 l/m² 2,4 km/h (1 Bft) N-NO 13 ° 0 min 8,7 °C 11,3 °C 6,4 km/h (2 Bft)
17.06.2010 04:50 24,2 °C 11,4 °C 11,3 °C 11,4 °C 38 % 84 % 0 % 0 % 1019,2 hPa 0,0 l/m² 2,0 km/h (1 Bft) NO 41 ° 0 min 8,8 °C 11,4 °C 6,4 km/h (2 Bft)
17.06.2010 04:45 24,2 °C 11,4 °C 11,4 °C 11,5 °C 38 % 84 % 0 % 0 % 1019,3 hPa 0,0 l/m² 3,7 km/h (1 Bft) N-NO 16 ° 0 min 8,8 °C 11,4 °C 9,7 km/h (2 Bft)
17.06.2010 04:40 24,2 °C 11,5 °C 11,5 °C 11,6 °C 38 % 83 % 0 % 0 % 1019,2 hPa 0,0 l/m² 3,2 km/h (1 Bft) N-NO 12 ° 0 min 8,7 °C 11,5 °C 11,3 km/h (2 Bft)
17.06.2010 04:35 24,2 °C 11,6 °C 11,6 °C 11,6 °C 38 % 83 % 0 % 0 % 1019,3 hPa 0,0 l/m² 3,5 km/h (1 Bft) N-NO 17 ° 0 min 8,8 °C 11,6 °C 9,7 km/h (2 Bft)
17.06.2010 04:30 24,2 °C 11,6 °C 11,6 °C 11,7 °C 38 % 83 % 0 % 0 % 1019,3 hPa 0,0 l/m² 4,6 km/h (1 Bft) N-NW 344 ° 0 min 8,8 °C 11,6 °C 9,7 km/h (2 Bft)
17.06.2010 04:25 24,2 °C 11,7 °C 11,7 °C 11,7 °C 38 % 83 % 0 % 0 % 1019,4 hPa 0,0 l/m² 3,8 km/h (1 Bft) N-NW 331 ° 0 min 8,9 °C 11,7 °C 9,7 km/h (2 Bft)
17.06.2010 04:20 24,2 °C 11,7 °C 11,7 °C 11,8 °C 38 % 83 % 0 % 0 % 1019,4 hPa 0,0 l/m² 4,2 km/h (1 Bft) N 5 ° 0 min 8,9 °C 11,7 °C 11,3 km/h (2 Bft)
17.06.2010 04:15 24,2 °C 11,8 °C 11,8 °C 11,8 °C 38 % 83 % 0 % 0 % 1019,4 hPa 0,0 l/m² 4,6 km/h (1 Bft) N-NO 12 ° 0 min 9,0 °C 11,8 °C 11,3 km/h (2 Bft)
17.06.2010 04:10 24,3 °C 11,8 °C 11,8 °C 11,9 °C 38 % 83 % 0 % 0 % 1019,5 hPa 0,0 l/m² 4,8 km/h (1 Bft) N-NO 24 ° 0 min 9,0 °C 11,8 °C 9,7 km/h (2 Bft)
17.06.2010 04:05 24,3 °C 11,9 °C 11,9 °C 11,9 °C 38 % 83 % 0 % 0 % 1019,5 hPa 0,0 l/m² 5,5 km/h (1 Bft) N-NO 20 ° 0 min 9,1 °C 11,9 °C 11,3 km/h (2 Bft)
17.06.2010 04:00 24,3 °C 11,9 °C 11,9 °C 12,0 °C 38 % 82 % 0 % 0 % 1019,6 hPa 0,0 l/m² 4,3 km/h (1 Bft) N 5 ° 0 min 8,9 °C 11,9 °C 11,3 km/h (2 Bft)
17.06.2010 03:55 24,3 °C 12,0 °C 12,0 °C 12,0 °C 38 % 82 % 0 % 0 % 1019,5 hPa 0,0 l/m² 4,0 km/h (1 Bft) N 360 ° 0 min 9,0 °C 12,0 °C 8,0 km/h (2 Bft)
17.06.2010 03:50 24,3 °C 12,0 °C 12,0 °C 12,1 °C 38 % 82 % 0 % 0 % 1019,5 hPa 0,0 l/m² 3,3 km/h (1 Bft) N-NO 19 ° 0 min 9,0 °C 12,0 °C 9,7 km/h (2 Bft)
17.06.2010 03:45 24,3 °C 12,1 °C 12,1 °C 12,1 °C 38 % 82 % 0 % 0 % 1019,5 hPa 0,0 l/m² 3,7 km/h (1 Bft) N 5 ° 0 min 9,1 °C 12,1 °C 8,0 km/h (2 Bft)
17.06.2010 03:40 24,3 °C 12,1 °C 12,1 °C 12,2 °C 37 % 82 % 0 % 0 % 1019,5 hPa 0,0 l/m² 4,3 km/h (1 Bft) N 5 ° 0 min 9,1 °C 12,1 °C 9,7 km/h (2 Bft)
17.06.2010 03:35 24,3 °C 12,2 °C 12,2 °C 12,2 °C 37 % 82 % 0 % 0 % 1019,6 hPa 0,0 l/m² 5,4 km/h (1 Bft) N 9 ° 0 min 9,2 °C 12,2 °C 9,7 km/h (2 Bft)
17.06.2010 03:30 24,3 °C 12,2 °C 12,2 °C 12,3 °C 37 % 82 % 0 % 0 % 1019,6 hPa 0,0 l/m² 5,0 km/h (1 Bft) N 360 ° 0 min 9,2 °C 12,2 °C 9,7 km/h (2 Bft)
17.06.2010 03:25 24,4 °C 12,3 °C 12,3 °C 12,3 °C 37 % 82 % 0 % 0 % 1019,6 hPa 0,0 l/m² 5,0 km/h (1 Bft) N 5 ° 0 min 9,3 °C 12,3 °C 9,7 km/h (2 Bft)
17.06.2010 03:20 24,4 °C 12,3 °C 12,3 °C 12,3 °C 37 % 82 % 0 % 0 % 1019,6 hPa 0,0 l/m² 4,3 km/h (1 Bft) N-NO 13 ° 0 min 9,3 °C 12,3 °C 8,0 km/h (2 Bft)
17.06.2010 03:15 24,4 °C 12,3 °C 12,3 °C 12,4 °C 37 % 82 % 0 % 0 % 1019,6 hPa 0,0 l/m² 5,0 km/h (1 Bft) N 360 ° 0 min 9,3 °C 12,3 °C 9,7 km/h (2 Bft)
17.06.2010 03:10 24,4 °C 12,4 °C 12,3 °C 12,4 °C 37 % 82 % 0 % 0 % 1019,6 hPa 0,0 l/m² 3,7 km/h (1 Bft) N-NO 22 ° 0 min 9,4 °C 12,4 °C 8,0 km/h (2 Bft)
17.06.2010 03:05 24,4 °C 12,4 °C 12,4 °C 12,5 °C 37 % 82 % 0 % 0 % 1019,6 hPa 0,0 l/m² 4,3 km/h (1 Bft) N 355 ° 0 min 9,4 °C 12,4 °C 9,7 km/h (2 Bft)
17.06.2010 03:00 24,4 °C 12,5 °C 12,5 °C 12,6 °C 37 % 82 % 0 % 0 % 1019,6 hPa 0,0 l/m² 3,8 km/h (1 Bft) N 360 ° 0 min 9,5 °C 12,5 °C 8,0 km/h (2 Bft)
17.06.2010 02:55 24,4 °C 12,5 °C 12,5 °C 12,6 °C 37 % 82 % 0 % 0 % 1019,7 hPa 0,0 l/m² 3,5 km/h (1 Bft) N-NO 22 ° 0 min 9,5 °C 12,5 °C 8,0 km/h (2 Bft)
17.06.2010 02:50 24,4 °C 12,6 °C 12,6 °C 12,7 °C 37 % 82 % 0 % 0 % 1019,7 hPa 0,0 l/m² 4,1 km/h (1 Bft) N 5 ° 0 min 9,6 °C 12,6 °C 9,7 km/h (2 Bft)
17.06.2010 02:45 24,4 °C 12,7 °C 12,7 °C 12,7 °C 37 % 82 % 0 % 0 % 1019,6 hPa 0,0 l/m² 4,5 km/h (1 Bft) N-NO 24 ° 0 min 9,7 °C 12,7 °C 9,7 km/h (2 Bft)
17.06.2010 02:40 24,5 °C 12,7 °C 12,7 °C 12,7 °C 37 % 82 % 0 % 0 % 1019,6 hPa 0,0 l/m² 4,1 km/h (1 Bft) N 9 ° 0 min 9,7 °C 12,7 °C 9,7 km/h (2 Bft)
17.06.2010 02:35 24,5 °C 12,7 °C 12,7 °C 12,8 °C 37 % 81 % 0 % 0 % 1019,6 hPa 0,0 l/m² 3,7 km/h (1 Bft) N 5 ° 0 min 9,5 °C 12,7 °C 9,7 km/h (2 Bft)
17.06.2010 02:30 24,5 °C 12,7 °C 12,7 °C 12,8 °C 37 % 81 % 0 % 0 % 1019,6 hPa 0,0 l/m² 3,6 km/h (1 Bft) N 5 ° 0 min 9,5 °C 12,7 °C 8,0 km/h (2 Bft)
17.06.2010 02:25 24,5 °C 12,8 °C 12,8 °C 12,9 °C 37 % 80 % 0 % 0 % 1019,6 hPa 0,0 l/m² 3,2 km/h (1 Bft) N-NO 32 ° 0 min 9,4 °C 12,8 °C 9,7 km/h (2 Bft)
17.06.2010 02:20 24,5 °C 12,9 °C 12,9 °C 12,9 °C 37 % 79 % 0 % 0 % 1019,6 hPa 0,0 l/m² 2,7 km/h (1 Bft) N 5 ° 0 min 9,3 °C 12,9 °C 6,4 km/h (2 Bft)
17.06.2010 02:15 24,5 °C 12,9 °C 12,9 °C 13,0 °C 37 % 79 % 0 % 0 % 1019,6 hPa 0,0 l/m² 1,9 km/h (1 Bft) N 9 ° 0 min 9,3 °C 12,9 °C 6,4 km/h (2 Bft)
17.06.2010 02:10 24,5 °C 13,0 °C 13,0 °C 13,1 °C 37 % 79 % 0 % 0 % 1019,7 hPa 0,0 l/m² 1,4 km/h (1 Bft) N 11 ° 0 min 9,4 °C 13,0 °C 6,4 km/h (2 Bft)
17.06.2010 02:05 24,5 °C 13,1 °C 13,1 °C 13,2 °C 36 % 79 % 0 % 0 % 1019,7 hPa 0,0 l/m² 2,0 km/h (1 Bft) N-NO 15 ° 0 min 9,5 °C 13,1 °C 6,4 km/h (2 Bft)
17.06.2010 02:00 24,5 °C 13,2 °C 13,2 °C 13,3 °C 36 % 79 % 0 % 0 % 1019,8 hPa 0,0 l/m² 1,9 km/h (1 Bft) N 355 ° 0 min 9,6 °C 13,2 °C 6,4 km/h (2 Bft)
17.06.2010 01:55 24,6 °C 13,3 °C 13,2 °C 13,3 °C 36 % 79 % 0 % 0 % 1019,8 hPa 0,0 l/m² 1,9 km/h (1 Bft) NO 35 ° 0 min 9,7 °C 13,3 °C 6,4 km/h (2 Bft)
17.06.2010 01:50 24,6 °C 13,3 °C 13,3 °C 13,4 °C 36 % 78 % 0 % 0 % 1019,9 hPa 0,0 l/m² 1,2 km/h (1 Bft) NO 34 ° 0 min 9,5 °C 13,3 °C 6,4 km/h (2 Bft)
17.06.2010 01:45 24,6 °C 13,4 °C 13,4 °C 13,5 °C 36 % 77 % 0 % 0 % 1019,9 hPa 0,0 l/m² 1,2 km/h (1 Bft) N 5 ° 0 min 9,5 °C 13,4 °C 8,0 km/h (2 Bft)
17.06.2010 01:40 24,6 °C 13,5 °C 13,5 °C 13,6 °C 36 % 77 % 0 % 0 % 1019,9 hPa 0,0 l/m² 1,4 km/h (1 Bft) NO 55 ° 0 min 9,5 °C 13,5 °C 4,8 km/h (1 Bft)
17.06.2010 01:35 24,6 °C 13,6 °C 13,6 °C 13,7 °C 36 % 76 % 0 % 0 % 1019,9 hPa 0,0 l/m² 2,2 km/h (1 Bft) N 360 ° 0 min 9,4 °C 13,6 °C 9,7 km/h (2 Bft)
17.06.2010 01:30 24,6 °C 13,7 °C 13,7 °C 13,8 °C 36 % 75 % 0 % 0 % 1019,9 hPa 0,0 l/m² 2,0 km/h (1 Bft) N 5 ° 0 min 9,3 °C 13,7 °C 6,4 km/h (2 Bft)
17.06.2010 01:25 24,6 °C 13,8 °C 13,8 °C 13,8 °C 36 % 75 % 0 % 0 % 1020,0 hPa 0,0 l/m² 2,4 km/h (1 Bft) N 360 ° 0 min 9,4 °C 13,8 °C 8,0 km/h (2 Bft)
17.06.2010 01:20 24,6 °C 13,8 °C 13,8 °C 13,9 °C 36 % 74 % 0 % 0 % 1020,1 hPa 0,0 l/m² 2,4 km/h (1 Bft) N 360 ° 0 min 9,2 °C 13,8 °C 6,4 km/h (2 Bft)
17.06.2010 01:15 24,6 °C 13,9 °C 13,9 °C 14,1 °C 36 % 73 % 0 % 0 % 1020,1 hPa 0,0 l/m² 2,8 km/h (1 Bft) NO 41 ° 0 min 9,1 °C 13,9 °C 11,3 km/h (2 Bft)
17.06.2010 01:10 24,6 °C 14,1 °C 14,1 °C 14,2 °C 35 % 72 % 0 % 0 % 1020,1 hPa 0,0 l/m² 2,7 km/h (1 Bft) N 355 ° 0 min 9,1 °C 14,1 °C 8,0 km/h (2 Bft)
17.06.2010 01:05 24,6 °C 14,2 °C 14,2 °C 14,3 °C 35 % 71 % 0 % 0 % 1020,1 hPa 0,0 l/m² 3,1 km/h (1 Bft) N 360 ° 0 min 9,0 °C 14,2 °C 11,3 km/h (2 Bft)
17.06.2010 01:00 24,7 °C 14,2 °C 14,2 °C 14,3 °C 35 % 70 % 0 % 0 % 1020,1 hPa 0,0 l/m² 3,3 km/h (1 Bft) N 360 ° 0 min 8,8 °C 14,2 °C 14,5 km/h (3 Bft)
17.06.2010 00:55 24,7 °C 14,3 °C 14,3 °C 14,4 °C 35 % 69 % 0 % 0 % 1020,0 hPa 0,0 l/m² 2,1 km/h (1 Bft) N-NO 32 ° 0 min 8,7 °C 14,3 °C 6,4 km/h (2 Bft)
17.06.2010 00:50 24,7 °C 14,4 °C 14,4 °C 14,6 °C 35 % 67 % 0 % 0 % 1019,9 hPa 0,0 l/m² 2,3 km/h (1 Bft) N-NO 23 ° 0 min 8,4 °C 14,4 °C 8,0 km/h (2 Bft)
17.06.2010 00:45 24,7 °C 14,6 °C 14,6 °C 14,7 °C 35 % 66 % 0 % 0 % 1019,9 hPa 0,0 l/m² 3,2 km/h (1 Bft) N 9 ° 0 min 8,3 °C 14,6 °C 9,7 km/h (2 Bft)
17.06.2010 00:40 24,7 °C 14,7 °C 14,7 °C 14,8 °C 35 % 64 % 0 % 0 % 1019,9 hPa 0,0 l/m² 3,3 km/h (1 Bft) N 5 ° 0 min 8,0 °C 14,7 °C 9,7 km/h (2 Bft)
17.06.2010 00:35 24,7 °C 14,8 °C 14,8 °C 14,8 °C 35 % 63 % 0 % 0 % 1019,9 hPa 0,0 l/m² 3,7 km/h (1 Bft) N 351 ° 0 min 7,8 °C 14,8 °C 8,0 km/h (2 Bft)
17.06.2010 00:30 24,7 °C 14,8 °C 14,8 °C 14,9 °C 35 % 62 % 0 % 0 % 1019,9 hPa 0,0 l/m² 3,0 km/h (1 Bft) N 355 ° 0 min 7,6 °C 14,8 °C 9,7 km/h (2 Bft)
17.06.2010 00:25 24,7 °C 14,9 °C 14,9 °C 15,0 °C 35 % 61 % 0 % 0 % 1019,9 hPa 0,0 l/m² 3,1 km/h (1 Bft) N 360 ° 0 min 7,4 °C 14,9 °C 9,7 km/h (2 Bft)
17.06.2010 00:20 24,7 °C 15,0 °C 14,9 °C 15,1 °C 35 % 60 % 0 % 0 % 1019,8 hPa 0,0 l/m² 2,7 km/h (1 Bft) N-NO 30 ° 0 min 7,3 °C 15,0 °C 9,7 km/h (2 Bft)
17.06.2010 00:15 24,8 °C 15,1 °C 15,1 °C 15,2 °C 35 % 60 % 0 % 0 % 1019,9 hPa 0,0 l/m² 2,8 km/h (1 Bft) N-NO 30 ° 0 min 7,4 °C 15,1 °C 9,7 km/h (2 Bft)
17.06.2010 00:10 24,8 °C 15,2 °C 15,2 °C 15,3 °C 35 % 60 % 0 % 0 % 1019,9 hPa 0,0 l/m² 0,7 km/h (0 Bft) NO 35 ° 0 min 7,5 °C 15,2 °C 4,8 km/h (1 Bft)
17.06.2010 00:05 24,8 °C 15,3 °C 15,3 °C 15,4 °C 35 % 59 % 0 % 0 % 1019,9 hPa 0,0 l/m² 0,8 km/h (0 Bft) NO 42 ° 0 min 7,3 °C 15,3 °C 4,8 km/h (1 Bft)
17.06.2010 00:00 24,8 °C 15,4 °C 15,4 °C 15,5 °C 35 % 59 % 0 % 0 % 1019,9 hPa 0,0 l/m² 1,0 km/h (0 Bft) NO 47 ° 0 min 7,4 °C 15,4 °C 4,8 km/h (1 Bft)
16.06.2010 23:55 24,8 °C 15,5 °C 15,5 °C 15,6 °C 35 % 59 % 0 % 0 % 1019,9 hPa 0,0 l/m² 0,4 km/h (0 Bft) NO 47 ° 0 min 7,5 °C 15,5 °C 3,2 km/h (1 Bft)
16.06.2010 23:50 24,8 °C 15,6 °C 15,6 °C 15,7 °C 35 % 58 % 0 % 0 % 1019,9 hPa 0,0 l/m² 0,2 km/h (0 Bft) NO 46 ° 0 min 7,4 °C 15,6 °C 3,2 km/h (1 Bft)
16.06.2010 23:45 24,8 °C 15,7 °C 15,7 °C 15,8 °C 35 % 58 % 0 % 0 % 1019,9 hPa 0,0 l/m² 0,8 km/h (0 Bft) NO 53 ° 0 min 7,5 °C 15,7 °C 4,8 km/h (1 Bft)
16.06.2010 23:40 24,8 °C 15,8 °C 15,8 °C 15,8 °C 35 % 58 % 0 % 0 % 1019,9 hPa 0,0 l/m² 0,3 km/h (0 Bft) O-NO 65 ° 0 min 7,6 °C 15,8 °C 4,8 km/h (1 Bft)
16.06.2010 23:35 24,8 °C 15,8 °C 15,8 °C 15,9 °C 35 % 57 % 0 % 0 % 1019,8 hPa 0,0 l/m² 1,4 km/h (1 Bft) O-NO 58 ° 0 min 7,3 °C 15,8 °C 6,4 km/h (2 Bft)
16.06.2010 23:30 24,8 °C 15,9 °C 15,9 °C 15,9 °C 35 % 57 % 0 % 0 % 1019,8 hPa 0,0 l/m² 1,9 km/h (1 Bft) O-NO 68 ° 0 min 7,4 °C 15,9 °C 6,4 km/h (2 Bft)
16.06.2010 23:25 24,9 °C 15,9 °C 15,9 °C 16,1 °C 35 % 56 % 0 % 0 % 1019,7 hPa 0,0 l/m² 2,2 km/h (1 Bft) O-NO 65 ° 0 min 7,1 °C 15,9 °C 6,4 km/h (2 Bft)
16.06.2010 23:20 24,9 °C 16,1 °C 16,1 °C 16,2 °C 35 % 56 % 0 % 0 % 1019,8 hPa 0,0 l/m² 0,9 km/h (0 Bft) NO 56 ° 0 min 7,3 °C 16,1 °C 4,8 km/h (1 Bft)
16.06.2010 23:15 24,9 °C 16,2 °C 16,2 °C 16,3 °C 35 % 56 % 0 % 0 % 1019,8 hPa 0,0 l/m² 1,2 km/h (1 Bft) NO 34 ° 0 min 7,4 °C 16,2 °C 6,4 km/h (2 Bft)
16.06.2010 23:10 24,9 °C 16,3 °C 16,3 °C 16,4 °C 35 % 56 % 0 % 0 % 1019,8 hPa 0,0 l/m² 0,4 km/h (0 Bft) NO 38 ° 0 min 7,5 °C 16,3 °C 4,8 km/h (1 Bft)
16.06.2010 23:05 24,9 °C 16,4 °C 16,4 °C 16,5 °C 35 % 55 % 0 % 0 % 1019,8 hPa 0,0 l/m² 0,3 km/h (0 Bft) NO 55 ° 0 min 7,3 °C 16,4 °C 3,2 km/h (1 Bft)
16.06.2010 23:00 24,9 °C 16,5 °C 16,5 °C 16,6 °C 35 % 54 % 0 % 0 % 1019,8 hPa 0,0 l/m² 0,5 km/h (0 Bft) NO 36 ° 0 min 7,2 °C 16,5 °C 3,2 km/h (1 Bft)
16.06.2010 22:55 24,9 °C 16,6 °C 16,6 °C 16,8 °C 35 % 55 % 0 % 0 % 1019,7 hPa 0,0 l/m² 0,7 km/h (0 Bft) NO 36 ° 0 min 7,5 °C 16,6 °C 6,4 km/h (2 Bft)
16.06.2010 22:50 24,9 °C 16,8 °C 16,8 °C 17,0 °C 35 % 54 % 0 % 0 % 1019,7 hPa 0,0 l/m² 1,2 km/h (1 Bft) NO 38 ° 0 min 7,4 °C 16,8 °C 4,8 km/h (1 Bft)
16.06.2010 22:45 24,9 °C 17,0 °C 17,0 °C 17,3 °C 35 % 54 % 0 % 0 % 1019,7 hPa 0,0 l/m² 1,0 km/h (0 Bft) NO 38 ° 0 min 7,6 °C 17,0 °C 6,4 km/h (2 Bft)
16.06.2010 22:40 24,9 °C 17,3 °C 17,3 °C 17,4 °C 35 % 54 % 0 % 0 % 1019,7 hPa 0,0 l/m² 0,2 km/h (0 Bft) NO 35 ° 0 min 7,9 °C 17,3 °C 3,2 km/h (1 Bft)
16.06.2010 22:35 24,9 °C 17,4 °C 17,4 °C 17,7 °C 35 % 53 % 0 % 0 % 1019,8 hPa 0,0 l/m² 0,0 km/h (0 Bft) NO 34 ° 0 min 7,7 °C 17,4 °C 1,6 km/h (1 Bft)
16.06.2010 22:30 24,9 °C 17,7 °C 17,7 °C 17,9 °C 35 % 53 % 0 % 0 % 1019,7 hPa 0,0 l/m² 0,2 km/h (0 Bft) NO 34 ° 0 min 8,0 °C 17,7 °C 3,2 km/h (1 Bft)
16.06.2010 22:25 25,0 °C 17,9 °C 17,9 °C 18,3 °C 35 % 51 % 0 % 0 % 1019,7 hPa 0,0 l/m² 0,9 km/h (0 Bft) N-NO 32 ° 0 min 7,6 °C 17,9 °C 3,2 km/h (1 Bft)
16.06.2010 22:20 25,0 °C 18,3 °C 18,3 °C 18,5 °C 35 % 51 % 0 % 0 % 1019,7 hPa 0,0 l/m² 0,4 km/h (0 Bft) NO 42 ° 0 min 8,0 °C 18,3 °C 3,2 km/h (1 Bft)
16.06.2010 22:15 25,0 °C 18,5 °C 18,5 °C 18,7 °C 35 % 50 % 0 % 0 % 1019,6 hPa 0,0 l/m² 0,2 km/h (0 Bft) O-NO 71 ° 0 min 7,9 °C 18,5 °C 1,6 km/h (1 Bft)
16.06.2010 22:10 24,9 °C 18,7 °C 18,7 °C 18,8 °C 35 % 49 % 0 % 0 % 1019,6 hPa 0,0 l/m² 0,0 km/h (0 Bft) O-NO 71 ° 0 min 7,8 °C 18,7 °C 1,6 km/h (1 Bft)
16.06.2010 22:05 24,9 °C 18,8 °C 18,8 °C 18,9 °C 35 % 49 % 0 % 0 % 1019,5 hPa 0,0 l/m² 0,2 km/h (0 Bft) O-NO 71 ° 0 min 7,9 °C 18,8 °C 3,2 km/h (1 Bft)
16.06.2010 22:00 24,9 °C 18,9 °C 18,9 °C 19,1 °C 35 % 48 % 0 % 0 % 1019,5 hPa 0,0 l/m² 1,2 km/h (1 Bft) O-NO 71 ° 0 min 7,6 °C 18,9 °C 4,8 km/h (1 Bft)
16.06.2010 21:55 24,9 °C 19,1 °C 19,1 °C 19,3 °C 35 % 46 % 0 % 0 % 1019,5 hPa 0,0 l/m² 1,5 km/h (1 Bft) O-NO 68 ° 0 min 7,2 °C 19,1 °C 4,8 km/h (1 Bft)
16.06.2010 21:50 25,0 °C 19,2 °C 19,2 °C 19,4 °C 35 % 46 % 0 % 0 % 1019,4 hPa 0,0 l/m² 2,4 km/h (1 Bft) O-NO 63 ° 0 min 7,3 °C 19,2 °C 6,4 km/h (2 Bft)
16.06.2010 21:45 25,0 °C 19,4 °C 19,4 °C 19,6 °C 35 % 46 % 0 % 0 % 1019,3 hPa 0,0 l/m² 2,7 km/h (1 Bft) O 80 ° 0 min 7,5 °C 19,4 °C 8,0 km/h (2 Bft)
16.06.2010 21:40 25,0 °C 19,6 °C 19,6 °C 19,7 °C 35 % 45 % 0 % 0 % 1019,3 hPa 0,0 l/m² 2,3 km/h (1 Bft) O-SO 106 ° 0 min 7,3 °C 19,6 °C 6,4 km/h (2 Bft)
16.06.2010 21:35 25,0 °C 19,7 °C 19,7 °C 19,9 °C 35 % 45 % 0 % 0 % 1019,2 hPa 0,0 l/m² 3,1 km/h (1 Bft) O 79 ° 0 min 7,4 °C 19,7 °C 8,0 km/h (2 Bft)
16.06.2010 21:30 25,0 °C 19,9 °C 19,9 °C 20,1 °C 35 % 45 % 0 % 0 % 1019,2 hPa 0,0 l/m² 3,6 km/h (1 Bft) O-NO 78 ° 0 min 7,6 °C 19,9 °C 8,0 km/h (2 Bft)
16.06.2010 21:25 25,0 °C 20,1 °C 20,1 °C 20,2 °C 35 % 44 % 0 % 0 % 1019,2 hPa 0,0 l/m² 3,4 km/h (1 Bft) O 100 ° 0 min 7,5 °C 20,1 °C 9,7 km/h (2 Bft)
16.06.2010 21:20 25,0 °C 20,2 °C 20,2 °C 20,3 °C 35 % 44 % 0 % 0 % 1019,2 hPa 0,0 l/m² 3,6 km/h (1 Bft) O-NO 69 ° 0 min 7,6 °C 20,2 °C 9,7 km/h (2 Bft)
16.06.2010 21:15 25,0 °C 20,3 °C 20,3 °C 20,5 °C 35 % 43 % 0 % 0 % 1019,1 hPa 0,0 l/m² 4,4 km/h (1 Bft) O 100 ° 0 min 7,3 °C 20,3 °C 6,4 km/h (2 Bft)
16.06.2010 21:10 25,0 °C 20,5 °C 20,5 °C 20,6 °C 35 % 43 % 0 % 0 % 1019,1 hPa 0,0 l/m² 4,8 km/h (1 Bft) N-NO 32 ° 0 min 7,5 °C 20,5 °C 14,5 km/h (3 Bft)
16.06.2010 21:05 25,0 °C 20,6 °C 20,6 °C 20,7 °C 35 % 42 % 0 % 0 % 1019,0 hPa 0,0 l/m² 4,9 km/h (1 Bft) O-NO 67 ° 0 min 7,2 °C 20,6 °C 14,5 km/h (3 Bft)
16.06.2010 21:00 25,0 °C 20,7 °C 20,7 °C 20,8 °C 36 % 42 % 0 % 0 % 1019,0 hPa 0,0 l/m² 5,9 km/h (2 Bft) O-NO 68 ° 5 min 7,3 °C 20,7 °C 16,1 km/h (3 Bft)
16.06.2010 20:55 25,0 °C 20,8 °C 20,8 °C 20,8 °C 36 % 41 % 0 % 0 % 1019,0 hPa 0,0 l/m² 4,9 km/h (1 Bft) O 80 ° 5 min 7,1 °C 20,8 °C 16,1 km/h (3 Bft)
16.06.2010 20:50 25,0 °C 20,8 °C 20,8 °C 20,9 °C 35 % 42 % 0 % 0 % 1019,0 hPa 0,0 l/m² 6,8 km/h (2 Bft) O 95 ° 5 min 7,4 °C 20,7 °C 14,5 km/h (3 Bft)
16.06.2010 20:45 25,0 °C 20,9 °C 20,9 °C 21,1 °C 35 % 41 % 0 % 0 % 1018,9 hPa 0,0 l/m² 6,4 km/h (2 Bft) O 86 ° 5 min 7,2 °C 20,9 °C 17,7 km/h (3 Bft)
16.06.2010 20:40 25,0 °C 21,1 °C 21,1 °C 21,2 °C 36 % 41 % 0 % 0 % 1019,0 hPa 0,0 l/m² 5,4 km/h (1 Bft) O 81 ° 5 min 7,3 °C 21,1 °C 14,5 km/h (3 Bft)
16.06.2010 20:35 25,0 °C 21,2 °C 21,2 °C 21,3 °C 36 % 41 % 0 % 0 % 1019,0 hPa 0,0 l/m² 6,7 km/h (2 Bft) O-SO 113 ° 5 min 7,4 °C 21,1 °C 14,5 km/h (3 Bft)
16.06.2010 20:30 25,0 °C 21,3 °C 21,3 °C 21,3 °C 36 % 40 % 0 % 0 % 1019,0 hPa 0,0 l/m² 7,3 km/h (2 Bft) O 98 ° 5 min 7,1 °C 21,0 °C 16,1 km/h (3 Bft)
16.06.2010 20:25 25,0 °C 21,3 °C 21,3 °C 21,4 °C 36 % 40 % 0 % 0 % 1019,1 hPa 0,0 l/m² 5,2 km/h (1 Bft) O 98 ° 5 min 7,1 °C 21,3 °C 17,7 km/h (3 Bft)
16.06.2010 20:20 25,0 °C 21,4 °C 21,3 °C 21,4 °C 36 % 41 % 0 % 0 % 1019,1 hPa 0,0 l/m² 4,6 km/h (1 Bft) O-NO 75 ° 5 min 7,6 °C 21,4 °C 11,3 km/h (2 Bft)
16.06.2010 20:15 25,0 °C 21,4 °C 21,4 °C 21,5 °C 36 % 41 % 0 % 0 % 1019,0 hPa 0,0 l/m² 8,4 km/h (2 Bft) O-SO 117 ° 5 min 7,6 °C 20,7 °C 17,7 km/h (3 Bft)
16.06.2010 20:10 25,0 °C 21,5 °C 21,4 °C 21,6 °C 36 % 41 % 0 % 0 % 1019,0 hPa 0,0 l/m² 7,3 km/h (2 Bft) NO 50 ° 5 min 7,7 °C 21,2 °C 17,7 km/h (3 Bft)
16.06.2010 20:05 25,0 °C 21,6 °C 21,5 °C 21,6 °C 36 % 41 % 0 % 0 % 1019,0 hPa 0,0 l/m² 6,5 km/h (2 Bft) O 88 ° 5 min 7,8 °C 21,6 °C 17,7 km/h (3 Bft)
16.06.2010 20:00 25,0 °C 21,6 °C 21,6 °C 21,6 °C 36 % 41 % 0 % 0 % 1019,0 hPa 0,0 l/m² 6,9 km/h (2 Bft) O-SO 113 ° 5 min 7,8 °C 21,4 °C 17,7 km/h (3 Bft)
16.06.2010 19:55 25,0 °C 21,6 °C 21,6 °C 21,7 °C 36 % 41 % 0 % 0 % 1019,0 hPa 0,0 l/m² 7,2 km/h (2 Bft) O-SO 114 ° 5 min 7,8 °C 21,3 °C 16,1 km/h (3 Bft)
16.06.2010 19:50 25,0 °C 21,7 °C 21,7 °C 21,8 °C 35 % 40 % 0 % 0 % 1019,0 hPa 0,0 l/m² 9,9 km/h (2 Bft) O-NO 67 ° 5 min 7,5 °C 20,5 °C 27,4 km/h (4 Bft)
16.06.2010 19:45 25,0 °C 21,8 °C 21,8 °C 21,8 °C 35 % 39 % 0 % 0 % 1019,1 hPa 0,0 l/m² 7,9 km/h (2 Bft) NO 56 ° 5 min 7,2 °C 21,3 °C 16,1 km/h (3 Bft)
16.06.2010 19:40 25,0 °C 21,8 °C 21,7 °C 21,8 °C 36 % 39 % 0 % 0 % 1019,0 hPa 0,0 l/m² 6,3 km/h (2 Bft) O-NO 65 ° 5 min 7,2 °C 21,8 °C 16,1 km/h (3 Bft)
16.06.2010 19:35 25,0 °C 21,8 °C 21,8 °C 21,8 °C 36 % 39 % 0 % 0 % 1019,0 hPa 0,0 l/m² 7,1 km/h (2 Bft) O 98 ° 5 min 7,2 °C 21,6 °C 20,9 km/h (4 Bft)
16.06.2010 19:30 25,0 °C 21,8 °C 21,8 °C 21,8 °C 36 % 39 % 0 % 0 % 1019,1 hPa 0,0 l/m² 6,4 km/h (2 Bft) O-NO 76 ° 5 min 7,2 °C 21,8 °C 16,1 km/h (3 Bft)
16.06.2010 19:25 25,0 °C 21,8 °C 21,8 °C 21,9 °C 35 % 37 % 0 % 0 % 1019,1 hPa 0,0 l/m² 10,4 km/h (2 Bft) O 101 ° 5 min 6,5 °C 20,5 °C 20,9 km/h (4 Bft)
16.06.2010 19:20 25,0 °C 21,9 °C 21,9 °C 22,2 °C 35 % 38 % 0 % 0 % 1019,0 hPa 0,0 l/m² 11,1 km/h (2 Bft) O-NO 75 ° 5 min 6,9 °C 20,4 °C 20,9 km/h (4 Bft)
16.06.2010 19:15 24,9 °C 22,2 °C 22,1 °C 22,2 °C 35 % 38 % 0 % 0 % 1019,0 hPa 0,0 l/m² 7,7 km/h (2 Bft) NO 40 ° 5 min 7,2 °C 21,8 °C 17,7 km/h (3 Bft)
16.06.2010 19:10 24,9 °C 22,1 °C 22,0 °C 22,1 °C 35 % 39 % 0 % 0 % 1019,0 hPa 0,0 l/m² 8,6 km/h (2 Bft) S-SO 160 ° 5 min 7,5 °C 21,4 °C 19,3 km/h (3 Bft)
16.06.2010 19:05 24,9 °C 22,0 °C 22,0 °C 22,1 °C 35 % 39 % 0 % 0 % 1019,0 hPa 0,0 l/m² 7,0 km/h (2 Bft) O-SO 105 ° 5 min 7,4 °C 21,8 °C 16,1 km/h (3 Bft)
16.06.2010 19:00 24,9 °C 22,1 °C 22,0 °C 22,1 °C 35 % 39 % 0 % 0 % 1019,0 hPa 0,0 l/m² 8,2 km/h (2 Bft) O 90 ° 5 min 7,5 °C 21,5 °C 19,3 km/h (3 Bft)
16.06.2010 18:55 24,9 °C 22,1 °C 22,0 °C 22,1 °C 35 % 39 % 0 % 0 % 1019,1 hPa 0,0 l/m² 8,5 km/h (2 Bft) O-SO 115 ° 5 min 7,5 °C 21,4 °C 22,5 km/h (4 Bft)
16.06.2010 18:50 24,9 °C 22,0 °C 22,0 °C 22,1 °C 35 % 39 % 0 % 0 % 1019,0 hPa 0,0 l/m² 7,8 km/h (2 Bft) N-NO 17 ° 5 min 7,4 °C 21,5 °C 17,7 km/h (3 Bft)
16.06.2010 18:45 24,9 °C 22,1 °C 22,1 °C 22,3 °C 35 % 39 % 0 % 0 % 1019,0 hPa 0,0 l/m² 9,1 km/h (2 Bft) O 96 ° 5 min 7,5 °C 21,2 °C 24,1 km/h (4 Bft)
16.06.2010 18:40 24,9 °C 22,3 °C 22,3 °C 22,3 °C 35 % 39 % 0 % 0 % 1019,0 hPa 0,0 l/m² 9,3 km/h (2 Bft) O 80 ° 5 min 7,7 °C 21,4 °C 24,1 km/h (4 Bft)
16.06.2010 18:35 24,9 °C 22,3 °C 22,3 °C 22,6 °C 35 % 38 % 0 % 0 % 1019,0 hPa 0,0 l/m² 8,1 km/h (2 Bft) O-NO 60 ° 5 min 7,3 °C 21,7 °C 20,9 km/h (4 Bft)
16.06.2010 18:30 24,9 °C 22,6 °C 22,6 °C 22,8 °C 35 % 38 % 0 % 0 % 1019,0 hPa 0,0 l/m² 11,2 km/h (2 Bft) O-NO 76 ° 5 min 7,6 °C 21,2 °C 24,1 km/h (4 Bft)
16.06.2010 18:25 24,9 °C 22,8 °C 22,8 °C 22,9 °C 35 % 38 % 0 % 0 % 1019,1 hPa 0,0 l/m² 10,5 km/h (2 Bft) O-NO 74 ° 5 min 7,7 °C 21,6 °C 22,5 km/h (4 Bft)
16.06.2010 18:20 24,9 °C 22,9 °C 22,9 °C 22,9 °C 35 % 36 % 0 % 0 % 1019,1 hPa 0,0 l/m² 9,1 km/h (2 Bft) O 90 ° 5 min 7,0 °C 22,1 °C 24,1 km/h (4 Bft)
16.06.2010 18:15 24,9 °C 22,9 °C 22,8 °C 22,9 °C 35 % 38 % 0 % 0 % 1019,1 hPa 0,0 l/m² 8,9 km/h (2 Bft) O 90 ° 5 min 7,8 °C 22,1 °C 19,3 km/h (3 Bft)
16.06.2010 18:10 24,8 °C 22,8 °C 22,7 °C 22,8 °C 35 % 37 % 0 % 0 % 1019,1 hPa 0,0 l/m² 10,4 km/h (2 Bft) O-NO 63 ° 5 min 7,3 °C 21,6 °C 27,4 km/h (4 Bft)
16.06.2010 18:05 24,8 °C 22,7 °C 22,6 °C 22,7 °C 35 % 38 % 0 % 0 % 1019,1 hPa 0,0 l/m² 9,9 km/h (2 Bft) O-NO 59 ° 5 min 7,6 °C 21,6 °C 20,9 km/h (4 Bft)
16.06.2010 18:00 24,8 °C 22,6 °C 22,4 °C 22,6 °C 35 % 38 % 0 % 0 % 1019,2 hPa 0,0 l/m² 9,9 km/h (2 Bft) O 81 ° 5 min 7,6 °C 21,5 °C 22,5 km/h (4 Bft)
16.06.2010 17:55 24,8 °C 22,4 °C 22,3 °C 22,5 °C 35 % 38 % 0 % 0 % 1019,3 hPa 0,0 l/m² 12,0 km/h (2 Bft) N 351 ° 5 min 7,4 °C 20,8 °C 33,8 km/h (5 Bft)
16.06.2010 17:50 24,8 °C 22,3 °C 22,3 °C 22,4 °C 35 % 41 % 0 % 0 % 1019,3 hPa 0,0 l/m² 10,6 km/h (2 Bft) N 355 ° 5 min 8,4 °C 21,0 °C 24,1 km/h (4 Bft)
16.06.2010 17:45 24,8 °C 22,4 °C 22,3 °C 22,4 °C 35 % 40 % 0 % 0 % 1019,4 hPa 0,0 l/m² 9,1 km/h (2 Bft) N 349 ° 5 min 8,1 °C 21,5 °C 20,9 km/h (4 Bft)
16.06.2010 17:40 24,8 °C 22,3 °C 22,2 °C 22,4 °C 35 % 39 % 0 % 0 % 1019,5 hPa 0,0 l/m² 9,8 km/h (2 Bft) O 91 ° 5 min 7,7 °C 21,2 °C 20,9 km/h (4 Bft)
16.06.2010 17:35 24,8 °C 22,4 °C 22,4 °C 22,8 °C 35 % 39 % 0 % 0 % 1019,4 hPa 0,0 l/m² 11,8 km/h (2 Bft) O 84 ° 5 min 7,8 °C 20,8 °C 24,1 km/h (4 Bft)
16.06.2010 17:30 24,8 °C 22,8 °C 22,6 °C 22,8 °C 35 % 39 % 0 % 0 % 1019,5 hPa 0,0 l/m² 10,0 km/h (2 Bft) O-NO 62 ° 5 min 8,1 °C 21,7 °C 22,5 km/h (4 Bft)
16.06.2010 17:25 24,8 °C 22,7 °C 22,7 °C 22,9 °C 35 % 38 % 0 % 0 % 1019,5 hPa 0,0 l/m² 6,7 km/h (2 Bft) O-NO 61 ° 5 min 7,6 °C 22,6 °C 19,3 km/h (3 Bft)
16.06.2010 17:20 24,8 °C 22,9 °C 22,7 °C 22,9 °C 35 % 37 % 0 % 0 % 1019,5 hPa 0,0 l/m² 10,5 km/h (2 Bft) O-NO 77 ° 5 min 7,4 °C 21,7 °C 22,5 km/h (4 Bft)
16.06.2010 17:15 24,8 °C 22,9 °C 22,8 °C 23,0 °C 35 % 37 % 0 % 0 % 1019,5 hPa 0,0 l/m² 9,4 km/h (2 Bft) O 99 ° 5 min 7,4 °C 22,0 °C 24,1 km/h (4 Bft)
16.06.2010 17:10 24,7 °C 22,8 °C 22,8 °C 23,4 °C 35 % 36 % 0 % 0 % 1019,5 hPa 0,0 l/m² 9,6 km/h (2 Bft) O 87 ° 5 min 6,9 °C 21,8 °C 20,9 km/h (4 Bft)
16.06.2010 17:05 24,7 °C 23,3 °C 23,1 °C 23,3 °C 35 % 37 % 0 % 0 % 1019,6 hPa 0,0 l/m² 10,5 km/h (2 Bft) SO 128 ° 5 min 7,8 °C 22,2 °C 22,5 km/h (4 Bft)
16.06.2010 17:00 24,7 °C 23,2 °C 22,9 °C 23,3 °C 35 % 38 % 0 % 0 % 1019,7 hPa 0,0 l/m² 8,8 km/h (2 Bft) O 91 ° 5 min 8,1 °C 22,5 °C 20,9 km/h (4 Bft)
16.06.2010 16:55 24,7 °C 22,9 °C 22,9 °C 23,3 °C 35 % 38 % 0 % 0 % 1019,7 hPa 0,0 l/m² 10,1 km/h (2 Bft) NO 44 ° 5 min 7,8 °C 21,8 °C 22,5 km/h (4 Bft)
16.06.2010 16:50 24,7 °C 23,2 °C 22,7 °C 23,2 °C 35 % 37 % 0 % 0 % 1019,8 hPa 0,0 l/m² 12,7 km/h (3 Bft) O-SO 113 ° 5 min 7,7 °C 21,6 °C 24,1 km/h (4 Bft)
16.06.2010 16:45 24,7 °C 22,7 °C 22,6 °C 22,8 °C 35 % 40 % 0 % 0 % 1019,7 hPa 0,0 l/m² 8,1 km/h (2 Bft) O 99 ° 5 min 8,4 °C 22,2 °C 37,0 km/h (5 Bft)
16.06.2010 16:40 24,7 °C 22,8 °C 22,8 °C 23,1 °C 34 % 39 % 0 % 0 % 1019,9 hPa 0,0 l/m² 11,6 km/h (2 Bft) O 84 ° 5 min 8,1 °C 21,3 °C 25,7 km/h (4 Bft)
16.06.2010 16:35 24,7 °C 23,0 °C 22,9 °C 23,3 °C 34 % 38 % 0 % 0 % 1019,8 hPa 0,0 l/m² 9,8 km/h (2 Bft) SO 144 ° 5 min 7,9 °C 22,0 °C 19,3 km/h (3 Bft)
16.06.2010 16:30 24,7 °C 23,3 °C 23,2 °C 23,3 °C 34 % 38 % 0 % 0 % 1020,1 hPa 0,0 l/m² 12,6 km/h (3 Bft) O 100 ° 5 min 8,2 °C 21,7 °C 27,4 km/h (4 Bft)
16.06.2010 16:25 24,7 °C 23,2 °C 22,8 °C 23,2 °C 35 % 38 % 0 % 0 % 1020,1 hPa 0,0 l/m² 13,7 km/h (3 Bft) O-SO 115 ° 5 min 8,1 °C 21,4 °C 25,7 km/h (4 Bft)
16.06.2010 16:20 24,7 °C 22,8 °C 22,8 °C 23,0 °C 35 % 38 % 0 % 0 % 1020,0 hPa 0,0 l/m² 9,6 km/h (2 Bft) O-NO 67 ° 5 min 7,7 °C 21,8 °C 20,9 km/h (4 Bft)
16.06.2010 16:15 24,7 °C 22,8 °C 22,8 °C 23,1 °C 35 % 38 % 0 % 0 % 1020,1 hPa 0,0 l/m² 12,4 km/h (3 Bft) O-SO 114 ° 5 min 7,7 °C 21,2 °C 22,5 km/h (4 Bft)
16.06.2010 16:10 24,7 °C 23,1 °C 22,8 °C 23,3 °C 35 % 38 % 0 % 0 % 1020,1 hPa 0,0 l/m² 9,5 km/h (2 Bft) O 97 ° 5 min 8,0 °C 22,2 °C 20,9 km/h (4 Bft)
16.06.2010 16:05 24,7 °C 22,8 °C 22,1 °C 22,8 °C 35 % 39 % 0 % 0 % 1020,2 hPa 0,0 l/m² 8,5 km/h (2 Bft) O-SO 123 ° 5 min 8,1 °C 22,1 °C 24,1 km/h (4 Bft)
16.06.2010 16:00 24,7 °C 22,3 °C 22,2 °C 22,4 °C 35 % 39 % 0 % 0 % 1020,3 hPa 0,0 l/m² 12,2 km/h (2 Bft) O-NO 77 ° 5 min 7,7 °C 20,6 °C 32,2 km/h (5 Bft)
_ Min-Zeit 06:05 05:25 05:25 05:30 16:30 17:10 16:00 16:00 15:45 - 22:10 - - - 19:25 05:25 22:10
Minimum _ 24,0 °C 10,9 °C 10,9 °C 10,9 °C 34 % 36 % 0 % 0 % 1016,0 hPa - 0,0 km/h (0 Bft) - - - 6,5 °C 10,9 °C 1,6 km/h (1 Bft)
_ Max-Zeit 13:05 14:45 14:45 14:45 08:50 05:10 16:00 16:00 16:00 16:00 15:15 - - 16:00 10:15 14:40 16:45
Maximum _ 26,4 °C 24,6 °C 24,2 °C 24,6 °C 41 % 85 % 0 % 0 % 1020,3 hPa 0,0 l/m² 13,9 km/h
O (3 Bft)
- - 5 min 10,3 °C 24,1 °C 37,0 km/h
N (5 Bft)
Durchschnitt _ 24,9 °C 18,1 °C 18,0 °C 18,2 °C 37 % 56 % 0 % 0 % 1018,9 hPa #0,0 l/m² 5,9 km/h (2 Bft) N - #9:50 h 8,6 °C 17,7 °C 14,3 km/h (3 Bft)

Wetterstation der RSB

Live-Wettercam RSB









zum 24h-Verlauf Bild anklicken

 
 

Mensamenü-Bestellung

  essenbestellen









zur Online-Bestellung
bitte das Bild anklicken!


RSB-App verfügbar für:

app




qrcodeRSB

gapp

Anmeldung

Intranet

Schulrundgang

Login

moodle_Logo


 

Zum Seitenanfang